SL-4 R/B

Last updated on Mon Sep 07 2026 00:02:09 GMT+0000 (Coordinated Universal Time)

1 39679U 14021B 26249.23025544 .00009943 00000+0 19715-3 0 9990 2 39679 51.6041 173.2872 0088188 44.0236 316.7729 15.43594737684129
UTC large
Height (km)
Speed (km/s)
/
Latitude / Longitude
Inclination (degrees)
Orbital Period (minutes)
Azimuth
Elevation
Range (km)
Doppler Factor

Next 0 passes for location: London (51.5072 / 0.1276)

No passes found over London.
SL-4 R/B